Location: Unspecified
(27.6217°N, 0.0000°E)
Time: 07:36:15
(UTC+00:00)

S-56A Canister/Altair - Visible Passes

Search period start: 04 April 2026 00:00
Search period end: 14 April 2026 00:00
Orbit: 632 x 2485 km, 38.9° (Epoch: 28 March)

Date Brightness Start Highest point End Pass type
(mag) Time Alt. Az. Time Alt. Az. Time Alt. Az.
5 Apr 11.2 05:19:10 10° SSW 05:30:07 35° SE 05:42:52 10° ENE visible
6 Apr 11.1 04:44:47 10° S 04:54:39 29° SE 05:06:20 10° ENE visible
7 Apr 11.1 04:10:42 10° S 04:19:18 24° SE 04:29:30 10° E visible
8 Apr 11.1 03:37:01 10° SSE 03:44:03 18° SE 03:52:15 10° E visible
9 Apr 11.2 03:04:07 10° SSE 03:08:53 13° SE 03:14:13 10° E visible
9 Apr 10.4 05:01:22 10° SSW 05:12:34 55° SE 05:26:49 10° ENE visible
10 Apr 10.4 04:26:42 10° SSW 04:37:03 47° SE 04:50:33 10° ENE visible
11 Apr 10.5 03:53:05 13° SSW 04:01:40 39° SE 04:14:10 10° ENE visible
12 Apr 10.4 03:20:23 19° S 03:26:25 32° SE 03:37:37 10° ENE visible
13 Apr 10.4 02:47:38 21° SSE 02:51:17 26° SE 03:00:52 10° E visible
13 Apr 9.8 04:44:54 11° SW 04:55:23 79° SE 05:10:05 10° ENE visible
